sat.trackr.live / text

‹ back to catalog

STARLINK-11339 [DTC]

NORAD 61691 · 2024-195E

PAYLOAD ACTIVE UNKNOWN

§ Identity

Operator
Country
US
Launch date
2024-10-30
Launch site
AFWTR
Launch vehicle
Mass (kg)
RCS (m²)

Purposes: comms

External: N2YO · Heavens-Above · Gunter

§ Orbital elements

Epoch: 2026-05-24T21:47:27.432096Z

Period
91.74 min
Inclination
53.1583°
Eccentricity
0.0000717
Mean motion
15.69700956 rev/d
Perigee alt
359.3 km
Apogee alt
360.2 km
Semi-major
6,737.9 km
B*
7.9116e-6
RAAN
10.5973°
Arg perigee
62.3916°
Mean anomaly
297.7174°
Rev number
9,100

§ Raw data

STARLINK-11339 [DTC]1 61691U 24195E   26144.90795639  .00000370  00000+0  79116-5 0  99972 61691  53.1583  10.5973 0000717  62.3916 297.7174 15.69700956 91002

JSON: /api/v1/satellites/61691 · /tle

For live sub-satellite position, see the globe view (requires WebGL).

§ Visibility from observer

Set your observer location to see the next 7 days of passes ≥ 10°. The values pass through the URL so the page stays shareable.

No JS? Fill the form by hand. The geolocation button needs JavaScript.